G7UKK-10 Weather Reports


time (UTC)temp
F
wind
direction
speed
knots
gust
knots
rain 1hr
in
rain 24hr
in
rain mn
in
humidity
%
barometer
mb
20260507174016 56 182 4.3 7.0 0.00 0.00 0.00 60 1015.9
20260507172516 56 180 5.2 7.0 0.00 0.00 0.00 60 1016.0
20260507171016 56 144 3.5 6.1 0.00 0.00 0.00 60 1015.9
20260507165516 56 166 2.6 5.2 0.00 0.00 0.00 60 1015.9
20260507164017 56 179 6.1 7.0 0.00 0.00 0.00 59 1016.0
20260507162517 56 142 2.6 5.2 0.00 0.00 0.00 59 1015.9
20260507161017 56 139 2.6 3.5 0.00 0.00 0.00 62 1016.1
20260507155517 55 140 1.7 2.6 0.00 0.00 0.00 64 1016.1
20260507154017 55 164 1.7 2.6 0.00 0.00 0.00 65 1016.3
20260507152517 54 183 3.5 5.2 0.00 0.00 0.00 65 1016.5
20260507151017 54 172 3.5 6.1 0.00 0.00 0.00 66 1016.4
20260507145517 54 172 4.3 6.1 0.00 0.00 0.00 65 1016.7
20260507144017 54 176 3.5 3.5 0.00 0.00 0.00 65 1016.6
20260507142517 54 162 4.3 6.1 0.00 0.00 0.00 67 1016.7
20260507141017 54 174 2.6 3.5 0.00 0.00 0.00 66 1017.0
20260507135517 54 178 3.5 3.5 0.00 0.00 0.00 65 1016.9
20260507134017 54 192 5.2 7.0 0.00 0.00 0.00 64 1016.8
20260507132517 55 165 4.3 5.2 0.00 0.00 0.00 63 1016.9
20260507131017 55 141 4.3 6.1 0.00 0.00 0.00 64 1016.8
20260507125517 55 132 5.2 6.1 0.00 0.00 0.00 65 1016.8
20260507124017 55 184 2.6 5.2 0.00 0.00 0.00 67 1016.8
20260507122517 54 166 4.3 7.0 0.00 0.00 0.00 68 1017.2
20260507121017 54 174 3.5 6.1 0.00 0.00 0.00 70 1017.3
20260507115517 54 182 0.9 0.9 0.00 0.00 0.00 71 1017.2
20260507114017 52 124 2.6 5.2 0.00 0.00 0.00 74 1017.3
20260507112517 50 124 3.5 7.0 0.00 0.00 0.00 77 1017.6
20260507111017 50 106 4.3 7.0 0.00 0.00 0.00 78 1017.4
20260507105517 49 172 4.3 6.1 0.00 0.00 0.00 79 1017.7
20260507104017 49 164 3.5 5.2 0.00 0.00 0.00 79 1017.6
20260507102517 48 172 3.5 6.1 0.00 0.00 0.00 80 1017.6
20260507101017 48 171 3.5 3.5 0.00 0.00 0.00 80 1017.8
20260507095517 48 184 3.5 5.2 0.00 0.00 0.00 79 1017.7
20260507094017 47 185 5.2 7.0 0.00 0.00 0.00 80 1017.7
20260507092517 47 187 5.2 7.0 0.00 0.00 0.00 80 1017.8
20260507091017 47 159 5.2 6.1 0.00 0.00 0.00 82 1017.6
20260507085517 46 173 4.3 6.1 0.00 0.00 0.00 82 1017.7
20260507084017 46 169 4.3 6.1 0.00 0.00 0.00 83 1017.6
20260507082517 46 169 4.3 5.2 0.00 0.00 0.00 83 1017.7
20260507081017 46 158 1.7 3.5 0.00 0.00 0.00 83 1017.6
20260507075517 46 171 4.3 7.0 0.00 0.00 0.00 82 1017.6
20260507074017 46 180 2.6 3.5 0.00 0.00 0.00 81 1017.5
20260507072517 46 179 2.6 3.5 0.00 0.00 0.00 82 1017.6
20260507071017 46 171 2.6 2.6 0.00 0.00 0.00 83 1017.7
20260507065517 46 201 2.6 3.5 0.00 0.00 0.00 83 1017.3
20260507064017 45 181 2.6 3.5 0.00 0.00 0.00 84 1017.3
20260507062517 45 165 1.7 1.7 0.00 0.00 0.00 84 1017.3
20260507061017 43 163 2.6 2.6 0.00 0.00 0.00 86 1017.4
20260507055517 42 162 0.0 0.9 0.00 0.00 0.00 87 1017.3
20260507054017 42 0 0.0 0.0 0.00 0.00 0.00 87 1017.3
20260507052517 42 176 1.7 2.6 0.00 0.00 0.00 87 1017.3
20260507051017 42 183 1.7 1.7 0.00 0.00 0.00 86 1017.3
20260507045517 42 182 1.7 3.5 0.00 0.00 0.00 86 1017.2
20260507044017 42 178 1.7 1.7 0.00 0.00 0.00 87 1017.3
20260507042517 42 174 0.9 1.7 0.00 0.00 0.00 87 1017.1
20260507041017 42 159 1.7 2.6 0.00 0.00 0.00 87 1016.9
20260507035517 42 176 0.9 1.7 0.00 0.00 0.00 86 1017.1
20260507034017 41 177 1.7 2.6 0.00 0.00 0.00 86 1017.1
20260507032517 41 172 0.9 0.9 0.00 0.00 0.00 85 1017.2
20260507031017 41 197 2.6 2.6 0.00 0.00 0.00 85 1017.3
20260507025517 40 175 1.7 2.6 0.00 0.00 0.00 84 1017.2
20260507024017 40 0 0.0 0.0 0.00 0.00 0.00 86 1017.3
20260507022517 40 0 0.0 0.0 0.00 0.00 0.00 86 1017.5
20260507021017 40 201 2.6 3.5 0.00 0.00 0.00 86 1017.1
20260507015517 39 177 2.6 2.6 0.00 0.00 0.00 87 1017.4
20260507014017 39 174 1.7 2.6 0.00 0.00 0.00 87 1017.1
20260507012517 39 174 1.7 2.6 0.00 0.00 0.00 87 1017.3
20260507011017 39 186 0.9 1.7 0.00 0.00 0.00 88 1017.4
20260507005517 39 173 0.0 0.9 0.00 0.00 0.00 88 1017.7
20260507004017 39 183 0.9 1.7 0.00 0.00 0.00 88 1017.4
20260507002517 39 197 0.9 1.7 0.00 0.00 0.00 88 1017.4
20260507001017 39 170 0.9 1.7 0.00 0.00 0.00 87 1017.7
20260506235517 39 199 0.9 1.7 0.00 0.00 0.00 87 1017.8
20260506234017 40 0 0.0 0.0 0.00 0.00 0.00 86 1017.9
20260506232517 40 0 0.0 0.0 0.00 0.00 0.00 86 1017.7
20260506231017 40 0 0.0 0.0 0.00 0.00 0.00 85 1017.7
20260506225517 41 159 0.9 0.9 0.00 0.00 0.00 85 1018.0
20260506224017 41 154 0.0 0.9 0.00 0.00 0.00 85 1017.8
20260506222517 41 183 1.7 2.6 0.00 0.00 0.00 85 1017.6
20260506221017 42 166 1.7 2.6 0.00 0.00 0.00 84 1017.8
20260506215517 43 171 2.6 3.5 0.00 0.00 0.00 82 1017.5
20260506214017 43 147 1.7 2.6 0.00 0.00 0.00 82 1017.8
20260506212517 43 132 2.6 3.5 0.00 0.00 0.00 82 1017.6
20260506211017 44 138 0.9 1.7 0.00 0.00 0.00 81 1017.7
20260506205517 44 148 0.0 0.9 0.00 0.00 0.00 81 1017.5
20260506204017 44 148 0.0 0.9 0.00 0.00 0.00 80 1017.6
20260506202517 44 0 0.0 0.0 0.00 0.00 0.00 79 1017.3
20260506201017 45 0 0.0 0.0 0.00 0.00 0.00 78 1017.2
20260506195517 45 0 0.0 0.0 0.00 0.00 0.00 78 1017.0
20260506194017 45 0 0.0 0.0 0.00 0.00 0.00 78 1016.9
20260506192517 46 108 0.9 2.6 0.00 0.00 0.00 77 1017.0
20260506191017 47 129 1.7 2.6 0.00 0.00 0.00 75 1016.8
20260506185517 47 133 4.3 7.0 0.00 0.00 0.00 74 1016.8
20260506184017 47 126 5.2 7.0 0.00 0.00 0.00 74 1016.7
20260506182517 47 133 5.2 9.6 0.00 0.00 0.00 73 1016.6
20260506181018 48 120 0.9 2.6 0.00 0.00 0.00 73 1016.7
20260506175517 48 158 0.9 2.6 0.00 0.00 0.00 74 1016.7